Regional Weather Roundup
Issued by NWS

Home | Current Version | Previous Version | Text Only | Print | Product List | Glossary Off
Versions: 1 2 3 4 5 6 7 8 9 10 11 12 13 14 15 16 17 18 19 20 21 22 23 24 25 26 27 28 29 30 31 32 33 34 35 36 37 38 39 40 41 42 43 44 45 46 47 48 49 50

000
ASUS43 KLMK 041102
RWRKY
KENTUCKY REGIONAL WEATHER ROUNDUP
NATIONAL WEATHER SERVICE LOUISVILLE KY
700 AM EDT FRI SEP 04 2015

NOTE "FAIR" INDICATES FEW OR NO CLOUDS BELOW 12,000 FEET
WITH NO SIGNIFICANT WEATHER AND/OR OBSTRUCTIONS TO VISIBILITY.

KYZ001>023-026-027-061>063-070>075-041200-
WESTERN AND SOUTH CENTRAL KENTUCKY

CITY           SKY/WX    TMP DP  RH WIND       PRES   REMARKS
PADUCAH        PTCLDY    66  64  93 CALM      29.99S FOG
HENDERSON      CLEAR     64  63  94 CALM      30.00R
OWENSBORO      CLEAR     68  67  96 CALM      30.01R
HOPKINSVILLE   CLEAR     69  66  91 E2        30.00R
BOWLING GREEN  FOG       69  67  93 CALM      30.02S VSB 3/4
GLASGOW        CLEAR     65  65 100 CALM      30.03R FOG
$$

KYZ024-025-028>034-038-045-046-053-041200-
NORTH CENTRAL KENTUCKY

CITY           SKY/WX    TMP DP  RH WIND       PRES   REMARKS
LOUISVILLE/SDF CLEAR     73  67  81 SE3       30.02R HAZE
LOUISVILLE/LOU CLEAR     70  68  93 CALM      30.03R FOG
FORT KNOX      FOG       64  64 100 CALM      30.02R VSB 1
$$

KYZ035>037-039>044-047>052-055>060-089>105-041200-
NORTHEAST KENTUCKY

CITY           SKY/WX    TMP DP  RH WIND       PRES   REMARKS
LEXINGTON      CLEAR     67  64  90 CALM      30.05R FOG
COVINGTON      CLEAR     67  66  97 CALM      30.02S FOG
FRANKFORT      CLEAR     66  64  93 CALM      30.03R FOG
$$

KYZ054-064>069-076>088-106>120-041200-
SOUTHEAST KENTUCKY

CITY           SKY/WX    TMP DP  RH WIND       PRES   REMARKS
JACKSON        CLEAR     68  66  93 CALM      30.06R FOG
LONDON         FOG       66  62  87 CALM      30.06R VSB 1/2
SOMERSET       NOT AVBL
MIDDLESBORO    FOG       65  65 100 CALM      30.08R VSB 3/4
MONTICELLO     SUNNY     62  62 100 CALM      30.08R FOG
$$



USA.gov is the U.S. government's official web portal to all federal, state and local government web resources and services.